DW4536 Weather Reports


time (UTC)temp
C
wind
direction
speed
KPH
gust
KPH
rain 1hr
cm
rain 24hr
cm
rain mn
cm
humidity
%
barometer
mb
20260505224016 23 257 9.7 24.1 0.00 1.42 0.58 33 1010.9
20260505223516 23 241 9.7 24.1 0.00 1.42 0.58 34 1010.9
20260505223013 23 220 9.7 24.1 0.00 1.42 0.58 33 1011.0
20260505222514 23 218 11.3 22.5 0.00 1.42 0.58 36 1010.9
20260505222015 23 223 11.3 24.1 0.00 1.42 0.58 35 1011.0
20260505221514 23 234 11.3 27.4 0.00 1.42 0.58 35 1011.3
20260505221243 23 269 11.3 27.4 0.00 1.42 0.58 34 1011.3
20260505220512 23 223 11.3 22.5 0.00 1.42 0.58 34 1011.2
20260505220009 23 254 9.7 22.5 0.00 1.42 0.58 33 1011.3
20260505215511 23 207 11.3 22.5 0.00 1.42 0.58 35 1011.3
20260505215241 23 280 12.9 22.5 0.00 1.42 0.58 34 1011.3
20260505214509 23 273 12.9 27.4 0.00 1.42 0.58 35 1011.4
20260505214008 23 237 11.3 27.4 0.00 1.42 0.58 36 1011.5
20260505213511 23 247 11.3 25.7 0.00 1.42 0.58 39 1011.5
20260505213009 22 242 11.3 25.7 0.00 1.42 0.58 38 1011.5
20260505212509 22 240 11.3 22.5 0.00 1.42 0.58 39 1011.6
20260505212010 22 243 11.3 22.5 0.00 1.42 0.58 40 1011.6
20260505211508 22 218 11.3 27.4 0.00 1.42 0.58 40 1011.5
20260505211007 23 281 12.9 29.0 0.00 1.42 0.58 41 1011.5
20260505210509 23 246 11.3 29.0 0.00 1.42 0.58 41 1011.6
20260505210007 23 219 9.7 27.4 0.00 1.42 0.58 41 1011.6
20260505205739 22 190 9.7 27.4 0.00 1.42 0.58 44 1011.7
20260505205008 21 259 8.0 22.5 0.00 1.42 0.58 42 1011.7
20260505204509 21 234 8.0 20.9 0.00 1.42 0.58 45 1011.7
20260505204006 21 250 8.0 20.9 0.00 1.42 0.58 44 1011.8
20260505203740 20 270 3.2 14.5 0.00 1.42 0.58 49 1011.8
20260505203238 20 189 1.6 8.0 0.00 1.42 0.58 54 1011.9
20260505202512 20 221 4.8 9.7 0.00 1.42 0.58 55 1012.0
20260505202508 20 183 3.2 9.7 0.00 1.42 0.58 53 1012.0
20260505201739 20 232 4.8 9.7 0.00 1.42 0.58 54 1012.2
20260505201006 20 191 4.8 11.3 0.00 1.42 0.58 54 1012.2
20260505200507 20 229 4.8 12.9 0.00 1.42 0.58 55 1012.2
20260505200005 20 227 6.4 12.9 0.00 1.42 0.58 57 1012.2
20260505195505 20 214 4.8 11.3 0.00 1.42 0.58 55 1012.3
20260505195008 20 284 4.8 12.9 0.00 1.42 0.58 54 1012.2
20260505194505 21 243 6.4 14.5 0.00 1.42 0.58 56 1012.2
20260505194005 21 244 6.4 14.5 0.00 1.42 0.58 55 1012.1
20260505193738 21 232 6.4 14.5 0.00 1.42 0.58 56 1012.3
20260505193003 21 331 3.2 9.7 0.00 1.42 0.58 55 1012.3
20260505192504 21 266 4.8 12.9 0.00 1.42 0.58 56 1012.5
20260505192005 21 324 6.4 14.5 0.00 1.42 0.58 57 1012.5
20260505191503 21 320 6.4 14.5 0.00 1.42 0.58 58 1012.6
20260505191003 20 307 4.8 14.5 0.00 1.42 0.58 60 1012.7
20260505190506 20 246 6.4 14.5 0.00 1.42 0.58 60 1012.8
20260505190004 20 302 4.8 11.3 0.00 1.42 0.58 58 1012.9
20260505185505 21 277 4.8 14.5 0.00 1.42 0.58 59 1013.0
20260505185004 21 296 4.8 14.5 0.00 1.42 0.58 58 1013.1
20260505184504 21 182 4.8 12.9 0.00 1.42 0.58 57 1013.2
20260505184001 21 245 3.2 9.7 0.00 1.42 0.58 60 1013.2
20260505183502 20 251 3.2 9.7 0.00 1.42 0.58 58 1013.2
20260505183001 20 177 3.2 6.4 0.00 1.42 0.58 61 1013.3
20260505182501 20 292 1.6 8.0 0.00 1.42 0.58 59 1013.3
20260505182002 20 288 1.6 8.0 0.00 1.42 0.58 59 1013.3
20260505181501 20 259 1.6 8.0 0.00 1.42 0.58 64 1013.3
20260505181003 19 174 1.6 8.0 0.00 1.42 0.58 62 1013.5
20260505180502 19 317 0.0 3.2 0.00 1.42 0.58 62 1013.5
20260505180001 18 211 1.6 6.4 0.00 1.42 0.58 63 1013.6
20260505175502 18 195 1.6 6.4 0.00 1.42 0.58 63 1013.8
20260505175000 18 275 1.6 6.4 0.00 1.42 0.58 62 1013.8
20260505174500 18 254 1.6 6.4 0.00 1.42 0.58 63 1013.8
20260505173958 18 200 1.6 4.8 0.00 1.42 0.58 64 1013.6
20260505173459 18 241 1.6 6.4 0.00 1.42 0.58 66 1013.6
20260505172957 18 319 1.6 6.4 0.00 1.42 0.58 67 1013.8
20260505172459 18 233 1.6 4.8 0.00 1.42 0.58 69 1013.9
20260505171957 18 186 1.6 4.8 0.00 1.42 0.58 69 1013.9
20260505171458 18 205 1.6 4.8 0.00 1.42 0.58 69 1013.8
20260505171227 17 261 1.6 4.8 0.00 1.42 0.58 70 1013.6
20260505170455 17 292 1.6 3.2 0.00 1.42 0.58 69 1013.8
20260505170227 17 324 1.6 4.8 0.00 1.42 0.58 71 1013.6
20260505165455 17 261 1.6 4.8 0.00 1.42 0.58 74 1013.6
20260505164957 17 248 1.6 4.8 0.00 1.42 0.58 76 1013.6
20260505164457 17 229 1.6 4.8 0.00 1.42 0.58 78 1013.6
20260505163956 17 217 1.6 4.8 0.00 1.42 0.58 78 1013.6
20260505163455 17 296 1.6 4.8 0.00 1.42 0.58 79 1013.8
20260505162954 16 215 1.6 4.8 0.00 1.42 0.58 80 1013.8
20260505162455 16 257 1.6 4.8 0.00 1.42 0.58 83 1013.8
20260505161951 16 215 1.6 4.8 0.00 1.42 0.58 81 1013.8
20260505161449 16 244 0.0 3.2 0.00 1.42 0.58 81 1013.8
20260505160950 16 253 0.0 3.2 0.00 1.42 0.58 85 1013.8
20260505160448 16 183 0.0 3.2 0.00 1.42 0.58 86 1013.6
20260505152949 16 257 0.0 3.2 0.00 1.42 0.58 90 1013.5
20260505152446 16 241 0.0 3.2 0.00 1.42 0.58 91 1013.4
20260505151948 15 279 1.6 3.2 0.00 1.42 0.58 92 1013.4
20260505151445 15 301 0.0 3.2 0.00 1.42 0.58 92 1013.4
20260505151214 15 301 0.0 3.2 0.00 1.42 0.58 92 1013.4
20260505150442 15 301 0.0 3.2 0.00 1.42 0.58 93 1013.5
20260505140431 15 280 0.0 3.2 0.03 1.42 0.58 94 1013.0
20260505124932 14 280 0.0 3.2 0.03 1.40 0.56 93 1012.6
20260505124431 14 280 0.0 3.2 0.03 1.40 0.56 93 1012.7
20260505123931 14 280 0.0 3.2 0.03 1.40 0.56 94 1012.7
20260505123431 14 280 0.0 1.6 0.03 1.40 0.56 93 1012.5
20260505122931 14 95 0.0 3.2 0.03 1.40 0.56 93 1012.1
20260505122430 14 95 0.0 3.2 0.03 1.40 0.56 93 1012.3
20260505121931 14 92 0.0 0.0 0.03 1.40 0.56 93 1012.2
20260505121700 14 92 0.0 0.0 0.00 1.37 0.53 93 1012.1
20260505120931 14 92 0.0 0.0 0.00 1.37 0.53 93 1012.1
20260505120430 14 92 0.0 1.6 0.03 1.37 0.53 92 1012.0
20260505115931 14 92 0.0 3.2 0.03 1.37 0.53 92 1011.8
20260505115436 14 92 0.0 0.0 0.05 1.37 0.53 91 1012.1
20260505115430 14 92 0.0 3.2 0.05 1.37 0.53 92 1012.0
20260505114429 14 92 0.0 3.2 0.05 1.37 0.53 91 1012.0
20260505113925 14 92 0.0 3.2 0.05 1.37 0.53 90 1011.9
20260505113426 14 120 0.0 4.8 0.05 1.37 0.53 90 1012.3
20260505112927 14 120 0.0 4.8 0.05 1.37 0.53 86 1012.5
20260505112426 14 119 0.0 3.2 0.05 1.37 0.53 86 1012.3
20260505111925 14 9 1.6 3.2 0.08 1.37 0.53 86 1012.0
20260505111424 14 339 1.6 3.2 0.08 1.37 0.53 86 1012.1
20260505110924 14 345 1.6 3.2 0.08 1.37 0.53 86 1012.3
20260505110423 14 319 0.0 3.2 0.05 1.35 0.51 88 1012.3
20260505101917 14 355 3.2 6.4 0.10 1.30 0.46 90 1013.1
20260505101416 14 296 1.6 4.8 0.10 1.30 0.46 91 1013.3
20260505101148 14 323 1.6 4.8 0.15 1.30 0.46 91 1013.4
20260505100418 14 323 0.0 3.2 0.15 1.30 0.46 91 1013.8
20260505095916 13 344 0.0 3.2 0.15 1.30 0.46 90 1013.8
20260505095421 13 44 1.6 4.8 0.15 1.27 0.43 90 1013.5
20260505095416 13 44 0.0 3.2 0.18 1.30 0.46 90 1013.6
20260505094415 14 12 1.6 4.8 0.18 1.27 0.43 92 1013.5
20260505094146 14 0 1.6 4.8 0.18 1.27 0.43 93 1013.6
20260505094032 14 30 1.6 3.2 0.18 1.24 0.41 93 1014.2
20260505092913 14 34 1.6 3.2 0.15 1.22 0.38 93 1014.3
20260505092645 14 30 1.6 3.2 0.18 1.22 0.38 93 1014.5
20260505091915 14 20 1.6 3.2 0.15 1.19 0.36 94 1014.3
20260505091414 14 61 1.6 3.2 0.15 1.19 0.36 94 1014.4
20260505090914 14 45 1.6 3.2 0.13 1.14 0.36 93 1014.4
20260505090647 14 71 0.0 3.2 0.13 1.14 0.30 93 1014.7
20260505085913 14 103 1.6 3.2 0.15 1.14 0.30 93 1014.7
20260505085411 14 92 1.6 4.8 0.13 1.12 0.28 93 1014.8
20260505084910 14 113 1.6 4.8 0.15 1.12 0.28 93 1015.0
20260505084411 14 75 0.0 3.2 0.15 1.09 0.25 93 1015.3
20260505083909 14 75 0.0 0.0 0.15 1.09 0.25 93 1015.4
20260505083407 14 51 0.0 0.0 0.15 1.07 0.23 93 1015.5
20260505082909 14 51 0.0 0.0 0.15 1.07 0.23 93 1015.7
20260505082640 14 51 0.0 0.0 0.15 1.04 0.23 93 1015.6
20260505082137 14 51 0.0 0.0 0.18 1.04 0.20 93 1015.6
20260505081637 14 51 0.0 0.0 0.18 1.04 0.20 93 1015.7
20260505080910 15 51 0.0 0.0 0.18 1.02 0.18 92 1015.9
20260505080904 14 51 0.0 0.0 0.15 1.02 0.18 92 1015.8
20260505075904 15 51 0.0 0.0 0.15 0.99 0.15 93 1016.0
20260505075405 15 51 0.0 0.0 0.15 0.99 0.15 93 1016.3
20260505074905 15 51 0.0 0.0 0.13 0.97 0.13 93 1016.3
20260505074404 15 51 0.0 0.0 0.10 0.94 0.10 93 1016.4
20260505073905 15 51 0.0 0.0 0.13 0.94 0.10 93 1016.4
20260505073405 15 51 0.0 0.0 0.13 0.91 0.08 93 1016.3
20260505072905 15 51 0.0 0.0 0.13 0.91 0.08 93 1016.3
20260505072409 15 51 0.0 0.0 0.10 0.86 0.03 92 1016.1
20260505072404 15 51 0.0 0.0 0.10 0.89 0.05 92 1016.1
20260505071401 15 51 0.0 0.0 0.13 0.86 0.03 92 1016.1
20260505070904 15 51 0.0 3.2 0.13 0.86 0.03 93 1016.1
20260505070634 15 51 0.0 3.2 0.13 0.84 0.00 93 1016.0
20260505065903 15 51 0.0 3.2 0.13 0.84 0.84 92 1015.9
20260505065408 15 51 0.0 0.0 0.15 0.84 0.84 92 1015.9
20260505065402 15 51 0.0 3.2 0.13 0.84 0.84 92 1015.9
20260505065019 15 51 0.0 0.0 0.15 0.84 0.84 92 1015.8
20260505063901 15 51 0.0 0.0 0.13 0.81 0.81 93 1015.7
20260505063632 15 51 0.0 0.0 0.13 0.79 0.79 93 1015.7
20260505062902 14 51 0.0 0.0 0.13 0.79 0.79 92 1015.7
20260505062359 14 51 0.0 0.0 0.13 0.79 0.79 91 1015.9
20260505061900 14 51 0.0 0.0 0.10 0.76 0.76 91 1015.9
20260505061401 14 51 0.0 0.0 0.10 0.74 0.76 91 1016.0
20260505061131 14 51 0.0 0.0 0.10 0.74 0.74 91 1016.0
20260505060400 14 51 0.0 0.0 0.08 0.71 0.71 91 1015.9
20260505055900 14 51 0.0 3.2 0.08 0.71 0.71 90 1015.8
20260505055359 14 51 0.0 3.2 0.10 0.71 0.71 90 1015.8
20260505055131 14 51 1.6 3.2 0.08 0.69 0.69 91 1015.6
20260505054359 15 17 1.6 3.2 0.08 0.69 0.69 91 1015.6
20260505054130 15 35 0.0 3.2 0.08 0.69 0.69 90 1015.8
20260505053359 15 101 0.0 3.2 0.05 0.66 0.66 90 1016.0
20260505052858 15 124 1.6 4.8 0.05 0.66 0.66 90 1016.0
20260505052403 15 113 1.6 4.8 0.08 0.66 0.66 89 1015.8
20260505052359 15 124 1.6 4.8 0.08 0.66 0.66 89 1016.0
20260505051356 15 110 0.0 3.2 0.05 0.64 0.64 90 1015.8
20260505050856 15 269 0.0 0.0 0.05 0.64 0.64 89 1015.9
20260505050627 15 269 0.0 3.2 0.05 0.64 0.64 90 1015.8
20260505041354 15 245 0.0 6.4 0.00 0.58 0.58 88 1015.8
20260505040852 15 175 0.0 6.4 0.03 0.58 0.58 87 1015.8
20260505040351 15 161 0.0 3.2 0.05 0.58 0.58 88 1015.7
20260505035858 15 110 0.0 3.2 0.08 0.58 0.58 87 1015.5
20260505035851 15 161 0.0 3.2 0.08 0.58 0.58 88 1015.6
20260505034851 15 147 0.0 1.6 0.10 0.58 0.58 86 1015.4
20260505034353 15 147 1.6 3.2 0.10 0.58 0.58 84 1015.2
20260505033851 15 147 1.6 6.4 0.10 0.58 0.58 84 1015.1
20260505033351 14 292 1.6 6.4 0.13 0.58 0.58 78 1014.8
20260505032851 14 20 1.6 8.0 0.15 0.58 0.58 84 1014.8
20260505032351 13 28 3.2 8.0 0.15 0.58 0.58 84 1014.8
20260505031849 13 38 1.6 4.8 0.15 0.58 0.58 84 1015.1
20260505031355 14 345 1.6 3.2 0.18 0.56 0.56 79 1015.9
20260505031349 14 42 0.0 3.2 0.18 0.58 0.58 84 1015.6
20260505030349 14 310 1.6 4.8 0.18 0.53 0.53 76 1016.1
20260505025849 14 242 0.0 4.8 0.20 0.51 0.51 79 1016.1
20260505025347 14 308 0.0 4.8 0.20 0.51 0.51 78 1016.3
20260505024848 14 308 1.6 4.8 0.18 0.48 0.48 76 1016.3
20260505024348 14 334 1.6 6.4 0.20 0.48 0.48 74 1016.0
20260505023847 15 301 1.6 6.4 0.23 0.48 0.48 75 1016.0
20260505023346 15 323 1.6 4.8 0.20 0.46 0.46 75 1016.1
20260505022845 15 315 0.0 3.2 0.18 0.43 0.46 79 1016.1
20260505022344 15 267 1.6 11.3 0.20 0.43 0.43 77 1016.3
20260505021844 15 257 1.6 11.3 0.20 0.43 0.43 77 1016.3
20260505021344 15 345 1.6 6.4 0.18 0.41 0.41 73 1016.0
20260505020845 15 283 1.6 9.7 0.18 0.38 0.38 71 1016.0
20260505020345 15 306 3.2 9.7 0.15 0.36 0.36 68 1015.8
20260505015845 16 293 3.2 9.7 0.10 0.30 0.30 69 1015.8
20260505015344 16 254 3.2 9.7 0.13 0.30 0.30 68 1015.8
20260505015115 16 286 4.8 9.7 0.13 0.30 0.30 70 1015.7
20260505014344 16 250 3.2 9.7 0.10 0.28 0.28 67 1015.8
20260505013845 16 228 3.2 9.7 0.10 0.25 0.25 68 1015.6
20260505013345 16 284 1.6 6.4 0.10 0.25 0.25 67 1015.3
20260505012844 16 280 1.6 8.0 0.13 0.25 0.25 70 1015.1
20260505012349 16 282 1.6 8.0 0.13 0.23 0.23 65 1014.7
20260505012344 16 300 1.6 8.0 0.10 0.23 0.23 66 1015.0
20260505011615 16 321 1.6 8.0 0.15 0.23 0.23 63 1014.6
20260505010845 16 348 0.0 4.8 0.13 0.20 0.20 70 1014.6
20260505010345 16 34 0.0 4.8 0.13 0.20 0.20 77 1014.7
20260505005844 17 66 0.0 4.8 0.13 0.20 0.20 75 1014.7
20260505005343 17 300 0.0 6.4 0.10 0.18 0.18 70 1014.8
20260505004844 17 300 0.0 6.4 0.10 0.18 0.18 67 1014.8
20260505004618 17 264 1.6 6.4 0.13 0.18 0.18 67 1015.0
20260505003844 17 274 3.2 11.3 0.10 0.15 0.15 63 1015.0
20260505003346 18 289 3.2 11.3 0.13 0.15 0.15 60 1014.7
20260505002845 18 307 4.8 12.9 0.13 0.13 0.13 63 1014.7
20260505002343 18 296 6.4 12.9 0.13 0.13 0.13 56 1014.6
20260505001845 18 332 4.8 12.9 0.10 0.10 0.10 55 1014.5
20260505001618 18 277 4.8 12.9 0.08 0.08 0.08 54 1014.2
20260505000844 18 297 6.4 14.5 0.08 0.08 0.08 57 1014.1
20260505000345 18 9 6.4 14.5 0.08 0.08 0.08 59 1014.0
20260504235844 18 340 6.4 14.5 0.08 0.08 0.08 59 1013.8
20260504235617 17 15 6.4 14.5 0.08 0.08 0.08 60 1013.9
20260504235114 17 323 6.4 17.7 0.08 0.08 0.08 62 1014.0
20260504234344 18 340 6.4 17.7 0.05 0.05 0.05 57 1014.2
20260504233844 18 208 8.0 27.4 0.05 0.05 0.05 56 1014.5
20260504233345 20 293 8.0 27.4 0.03 0.03 0.03 50 1014.7
20260504232845 21 289 9.7 27.4 0.00 0.00 0.00 49 1014.5
20260504232343 22 252 11.3 27.4 0.00 0.00 0.00 39 1014.3
20260504231844 23 268 11.3 20.9 0.00 0.00 0.00 30 1014.2
20260504231344 24 281 11.3 27.4 0.00 0.00 0.00 29 1014.0
20260504230844 24 275 11.3 27.4 0.00 0.00 0.00 25 1013.9
20260504230615 24 286 9.7 24.1 0.00 0.00 0.00 26 1013.6
20260504225849 24 238 9.7 30.6 0.00 0.00 0.00 25 1013.6
20260504225844 24 205 8.0 30.6 0.00 0.00 0.00 24 1013.8
20260504224845 25 246 11.3 20.9 0.00 0.00 0.00 23 1013.5